Wind_Speed
12 12 12 11 11 11 11 11 12 13 13 13 13 13 12 13 12 13 13 13 12 13 13 12 13 14 14 14 14 14 14 14 14 14 14 13 13 13 13 14 14 14 14
12 12 12 12 12 13 13 13 13 13 13 14 13 12 12 14 13 13 13 13 13 13 13 13 13 14 14 14 14 15 15 14 14 14 14 13 13 13 13 13 14 14 15
12 12 12 12 12 13 13 14 14 15 15 15 14 13 13 14 13 13 13 13 13 13 13 13 14 14 14 15 14 14 14 14 15 15 14 14 14 14 14 14 14 15 15
12 13 13 13 13 13 14 14 14 14 15 15 15 15 14 14 14 14 14 14 14 14 14 14 15 15 15 15 14 14 14 15 15 15 15 14 14 14 13 13 14 14 14
13 13 13 13 14 14 14 14 14 15 15 15 15 15 15 15 15 15 15 16 16 16 16 15 15 16 16 16 15 15 15 15 15 15 15 15 15 15 14 14 14 14 14
13 14 14 14 15 15 15 15 15 15 16 16 16 16 15 16 16 17 17 17 17 17 17 17 17 17 17 16 17 17 16 16 16 16 15 14 14 14 14 14 14 14 14
13 14 14 14 15 15 15 16 16 16 15 16 16 16 16 16 16 17 17 17 17 17 18 18 18 18 17 17 17 17 17 16 16 15 14 14 14 14 14 14 14 14 14
13 14 15 15 15 16 16 15 16 16 16 16 17 17 17 17 17 17 17 18 18 18 18 19 18 18 18 17 18 18 18 17 15 15 15 15 15 16 15 15 15 14 15
14 15 15 16 16 16 16 16 16 17 17 17 17 17 17 17 17 17 18 18 18 18 18 18 18 17 16 16 17 17 17 16 16 15 15 15 15 15 14 14 14 14 14
15 15 16 16 17 17 17 17 17 18 18 18 18 18 18 17 17 17 18 19 20 19 19 18 17 17 16 17 17 17 16 16 16 16 16 16 16 14 14 14 15 14 14
16 16 16 17 17 17 18 18 18 18 19 19 19 19 18 18 18 19 19 19 20 20 19 19 18 18 18 18 18 18 17 17 17 17 16 16 16 16 15 15 15 14 14
16 17 17 18 18 17 18 18 19 19 19 19 19 19 19 19 19 19 20 20 20 20 19 19 19 19 19 19 19 18 18 18 17 17 16 16 16 15 14 14 15 15 14
18 18 18 18 18 18 18 19 19 20 20 20 20 20 20 20 19 19 19 19 20 20 20 19 20 20 20 19 19 19 18 19 18 17 17 17 16 15 14 15 15 15 14
18 18 18 18 18 19 19 20 20 20 20 20 20 20 20 20 19 18 19 19 20 19 19 19 21 21 21 20 20 19 19 19 18 18 17 16 16 15 15 14 14 14 15
18 18 18 19 19 20 20 21 21 21 21 20 20 20 20 21 20 19 20 20 20 20 19 19 20 21 21 21 21 20 19 18 18 17 17 16 15 15 16 15 15 15 15
19 19 19 20 20 21 22 22 22 21 21 21 21 21 21 21 21 20 20 21 21 21 20 20 21 21 21 21 21 20 20 19 19 18 17 17 16 17 17 17 17 16 16
20 20 20 21 21 22 23 23 23 22 22 22 22 22 22 22 21 21 21 22 22 21 21 21 21 21 20 20 20 20 20 20 20 19 18 17 17 18 17 18 17 17 17
21 21 22 22 23 23 24 24 23 23 23 23 23 23 23 23 22 21 21 21 21 21 21 20 20 19 19 19 19 20 19 19 18 18 19 19 18 19 19 19 19 19 18
23 23 23 23 23 24 24 24 24 24 24 24 24 24 24 23 22 21 21 21 21 21 20 20 20 20 20 19 19 18 18 18 18 18 19 20 19 20 19 19 20 20 19
23 23 24 24 24 24 24 23 23 24 24 24 24 24 24 23 22 21 21 21 20 20 20 20 20 21 20 20 19 19 18 18 18 19 20 20 20 20 20 20 20 20 19
24 24 24 25 25 24 24 23 23 22 23 23 24 24 24 23 21 21 20 20 20 21 21 21 21 20 20 20 20 19 18 18 18 19 19 19 20 20 20 20 20 20 20
25 25 24 25 25 24 24 23 23 22 22 22 23 22 22 21 20 20 20 20 21 21 21 21 21 20 20 20 19 19 19 19 18 18 19 19 20 20 20 20 19 19 20
26 26 25 25 25 24 24 24 24 23 23 22 22 21 20 20 21 21 21 21 21 22 22 22 22 21 21 20 20 20 20 20 19 19 20 20 20 20 20 20 20 20 21
26 26 25 25 25 24 24 24 24 24 23 22 21 21 21 21 22 22 21 22 22 23 23 23 23 22 21 21 21 20 20 20 20 21 21 21 21 21 21 21 21 21 21
27 27 26 26 24 24 24 24 24 24 23 22 21 22 22 22 22 22 22 23 23 23 23 23 23 22 22 21 21 20 21 21 21 21 21 21 22 22 21 21 22 22 22
27 27 26 26 25 24 24 24 25 24 23 23 22 22 22 22 22 22 23 23 23 23 23 23 23 23 22 21 21 21 21 22 22 22 22 22 22 23 22 22 22 22 23
Wind_Direction
290 288 287 290 287 287 286 287 286 288 288 287 288 290 289 291 293 290 290 290 289 289 287 287 288 285 283 282 285 286 286 285 285 286 287 286 285 284 279 280 278 280 283
292 292 292 292 292 291 288 288 287 285 285 286 285 287 287 288 290 291 289 289 288 287 286 287 291 292 291 287 287 287 286 285 284 283 284 284 284 282 278 279 279 279 281
292 294 295 296 295 294 293 293 292 290 288 286 287 287 287 287 289 288 288 289 289 288 288 288 289 290 290 287 286 289 288 286 284 283 282 282 281 282 279 279 281 281 282
292 293 295 296 296 296 295 295 293 291 289 287 287 287 285 283 283 286 287 288 289 289 288 288 288 288 288 288 286 286 287 287 284 282 281 281 281 280 281 284 283 283 282
290 291 291 293 296 297 297 296 296 295 291 288 285 283 282 282 282 283 285 286 287 286 285 284 286 288 287 286 287 286 287 289 287 285 283 281 281 280 282 284 283 283 283
289 290 290 293 297 299 299 301 300 297 293 290 286 283 280 279 281 282 284 286 286 286 285 283 283 285 285 284 285 285 286 286 287 287 287 285 281 283 283 282 282 282 283
292 293 292 293 297 300 300 299 298 297 295 292 290 287 283 280 280 281 282 284 284 284 283 282 283 283 282 283 282 282 282 283 284 285 284 285 284 284 284 283 284 283 282
292 294 296 295 297 297 297 296 296 297 296 294 292 290 287 281 279 279 281 283 284 284 283 283 281 281 281 280 280 280 280 280 280 281 282 283 284 284 280 280 280 282 283
293 294 296 297 297 295 294 295 296 295 296 295 293 292 288 281 279 280 282 283 284 285 285 283 281 279 280 280 282 283 280 278 276 278 280 281 283 281 280 281 281 283 284
293 295 297 298 296 295 295 294 295 294 293 293 292 291 289 286 284 282 283 283 283 283 284 283 280 279 278 280 282 283 281 278 278 278 278 279 280 280 281 280 280 280 281
292 295 297 297 296 295 294 295 294 293 292 291 290 288 287 286 286 286 285 283 281 281 280 280 278 279 277 279 280 279 278 278 278 277 277 276 278 281 280 278 276 276 275
293 295 297 297 296 294 294 295 294 293 292 291 290 288 286 284 285 287 285 284 283 281 280 278 277 277 278 279 279 276 277 276 275 274 274 276 277 280 279 278 273 273 272
293 295 296 297 296 294 294 294 295 295 294 293 292 290 287 284 287 285 283 285 284 282 280 278 278 276 275 277 277 274 275 275 271 271 271 271 274 277 277 278 272 271 270
293 295 296 296 295 293 293 293 295 295 294 293 293 292 290 286 288 284 283 285 283 283 279 279 276 275 275 274 275 273 273 273 271 271 271 270 271 274 277 277 273 270 270
292 294 295 294 295 294 294 292 292 293 293 292 291 291 290 288 287 284 283 284 283 283 282 282 280 278 274 273 272 270 271 271 269 268 268 267 269 272 276 277 275 275 274
291 292 294 295 296 295 295 294 291 291 292 291 290 290 290 287 285 286 285 284 284 284 283 281 282 280 278 274 271 269 267 268 266 264 264 264 267 271 273 274 274 274 274
291 293 295 295 296 295 296 294 291 289 289 290 290 290 291 287 285 284 284 285 285 285 284 282 281 280 278 276 272 271 270 266 266 264 261 261 264 268 271 272 272 273 271
290 291 293 293 294 295 295 293 291 289 289 290 290 291 291 289 286 283 283 286 287 287 284 281 278 277 277 278 275 272 269 269 267 265 263 262 264 267 269 269 269 269 269
292 292 292 293 294 296 296 294 292 290 288 289 289 291 290 286 285 282 282 285 285 286 284 283 281 278 277 276 273 270 270 268 266 266 265 265 264 267 268 267 267 267 269
294 294 295 295 296 297 296 295 294 292 289 288 288 290 289 284 284 282 282 285 285 286 285 284 282 280 276 274 272 270 269 267 266 266 268 265 265 267 268 269 267 266 266
294 295 296 296 296 296 295 295 294 293 290 289 289 289 286 283 282 282 283 284 285 286 285 283 280 277 275 273 271 269 267 267 269 268 269 267 266 267 267 269 269 266 263
295 296 298 297 297 296 296 295 295 295 293 293 292 289 286 285 283 282 283 283 284 284 284 282 279 276 273 269 267 267 268 269 269 267 269 268 268 268 268 269 268 266 265
296 296 298 297 296 296 295 295 294 294 294 295 293 289 287 287 282 282 282 282 282 282 282 282 280 276 272 267 266 268 269 267 267 266 268 267 267 268 268 267 266 266 266
296 296 297 296 295 294 294 294 293 293 293 292 290 288 286 286 284 283 282 282 283 282 282 282 280 277 273 268 266 268 269 267 268 267 268 268 267 267 267 266 267 268 267
296 295 295 296 295 293 294 293 294 294 293 292 288 287 287 288 286 283 282 281 281 281 282 282 280 277 273 269 267 266 268 268 268 269 269 269 268 266 266 268 268 269 268
294 294 295 296 294 292 292 292 293 294 293 291 290 290 288 287 286 282 282 282 281 281 281 281 279 276 271 267 266 267 268 268 268 268 268 269 268 267 266 266 268 269 268
Height
5851 5850 5850 5850 5849 5849 5848 5848 5848 5847 5847 5847 5847 5846 5846 5846 5846 5845 5845 5845 5845 5845 5844 5844 5844 5844 5844 5843 5843 5843 5843 5843 5843 5842 5842 5842 5842 5842 5842 5842 5842 5842 5842
5848 5848 5848 5847 5847 5846 5846 5845 5845 5845 5844 5844 5844 5844 5844 5843 5843 5843 5842 5842 5842 5842 5841 5841 5841 5841 5840 5840 5840 5840 5840 5840 5839 5839 5839 5839 5839 5839 5839 5838 5838 5838 5838
5846 5846 5846 5845 5844 5844 5843 5842 5842 5842 5841 5841 5841 5841 5841 5840 5840 5840 5840 5839 5839 5838 5838 5838 5838 5838 5838 5837 5837 5837 5836 5836 5836 5836 5836 5835 5835 5835 5835 5835 5835 5835 5835
5844 5844 5843 5842 5842 5841 5840 5840 5839 5839 5838 5838 5837 5837 5837 5837 5837 5837 5837 5836 5836 5835 5835 5835 5835 5835 5834 5834 5834 5833 5833 5833 5833 5832 5832 5832 5832 5832 5831 5831 5831 5831 5831
5842 5841 5841 5840 5839 5838 5837 5836 5836 5835 5834 5833 5833 5833 5833 5833 5833 5833 5833 5833 5832 5832 5832 5832 5831 5831 5831 5830 5830 5830 5829 5829 5829 5828 5828 5828 5828 5828 5827 5827 5827 5827 5827
5839 5838 5838 5837 5836 5835 5834 5833 5832 5831 5830 5829 5829 5828 5828 5829 5829 5829 5829 5829 5829 5828 5828 5828 5827 5827 5827 5826 5826 5826 5826 5825 5825 5824 5824 5824 5824 5824 5823 5823 5823 5823 5823
5836 5836 5835 5834 5833 5832 5830 5829 5828 5827 5826 5825 5825 5824 5824 5824 5825 5825 5825 5825 5824 5824 5823 5823 5823 5823 5822 5822 5822 5822 5821 5821 5821 5820 5820 5820 5819 5820 5820 5819 5819 5819 5819
5833 5833 5831 5831 5829 5828 5827 5826 5825 5823 5822 5821 5821 5820 5820 5821 5820 5820 5820 5820 5820 5819 5819 5818 5818 5818 5818 5817 5817 5817 5816 5816 5816 5816 5816 5816 5815 5816 5815 5815 5815 5815 5815
5830 5829 5828 5827 5826 5825 5823 5822 5821 5820 5819 5818 5817 5816 5816 5816 5816 5816 5815 5815 5815 5814 5813 5813 5813 5813 5813 5812 5812 5812 5811 5811 5812 5812 5812 5812 5812 5811 5811 5811 5811 5811 5811
5826 5825 5824 5823 5822 5821 5820 5818 5817 5816 5815 5814 5813 5812 5811 5811 5811 5811 5811 5809 5809 5809 5808 5808 5808 5808 5808 5808 5807 5807 5807 5807 5807 5807 5807 5807 5807 5807 5806 5806 5807 5807 5807
5823 5821 5820 5819 5818 5817 5816 5814 5813 5812 5811 5810 5809 5808 5806 5806 5805 5805 5805 5804 5804 5803 5803 5803 5803 5803 5802 5802 5802 5802 5802 5802 5802 5802 5802 5802 5802 5802 5802 5802 5802 5803 5803
5819 5818 5816 5815 5814 5813 5812 5810 5809 5808 5807 5805 5804 5803 5802 5801 5800 5799 5799 5798 5798 5798 5797 5797 5797 5797 5797 5797 5797 5796 5797 5797 5797 5797 5798 5798 5798 5798 5797 5797 5798 5799 5799
5815 5813 5812 5811 5809 5808 5807 5806 5805 5803 5802 5801 5800 5798 5797 5796 5794 5793 5793 5793 5793 5792 5792 5791 5791 5791 5791 5791 5791 5791 5791 5792 5792 5792 5793 5793 5794 5794 5793 5793 5794 5795 5795
5810 5809 5808 5806 5805 5804 5803 5801 5800 5799 5797 5796 5795 5793 5792 5790 5789 5788 5788 5788 5787 5787 5786 5786 5785 5785 5785 5785 5785 5785 5786 5786 5787 5787 5788 5789 5789 5790 5790 5790 5790 5791 5792
5806 5804 5803 5802 5800 5799 5798 5796 5795 5794 5792 5791 5789 5788 5787 5785 5784 5783 5782 5782 5782 5781 5781 5780 5779 5779 5779 5779 5779 5779 5780 5780 5781 5782 5783 5784 5785 5785 5786 5786 5786 5787 5787
5801 5799 5798 5797 5795 5794 5793 5791 5790 5788 5787 5786 5784 5783 5781 5779 5778 5777 5777 5776 5775 5775 5775 5774 5773 5772 5772 5773 5773 5773 5774 5775 5775 5776 5777 5778 5780 5780 5781 5782 5782 5782 5783
5796 5794 5793 5792 5790 5789 5787 5785 5784 5783 5782 5780 5779 5777 5776 5774 5773 5772 5771 5770 5769 5769 5768 5768 5767 5766 5766 5766 5766 5767 5768 5768 5769 5770 5772 5773 5774 5775 5776 5776 5777 5777 5778
5791 5789 5788 5786 5785 5783 5781 5780 5778 5777 5776 5774 5773 5771 5770 5768 5767 5766 5765 5764 5763 5762 5762 5761 5761 5761 5760 5760 5760 5761 5761 5763 5763 5765 5766 5767 5768 5769 5770 5771 5771 5772 5773
5785 5783 5782 5780 5779 5777 5775 5773 5772 5770 5769 5768 5766 5765 5763 5761 5760 5760 5759 5758 5757 5756 5755 5755 5754 5754 5754 5754 5755 5755 5756 5757 5758 5759 5760 5761 5762 5763 5764 5765 5766 5766 5767
5779 5777 5776 5774 5773 5771 5769 5767 5765 5764 5762 5761 5759 5758 5756 5755 5754 5753 5753 5752 5751 5750 5749 5748 5748 5748 5748 5748 5749 5750 5751 5751 5752 5753 5754 5755 5756 5757 5758 5759 5760 5761 5761
5773 5771 5770 5768 5766 5764 5763 5761 5759 5757 5755 5754 5752 5751 5749 5748 5747 5747 5746 5746 5745 5744 5743 5743 5742 5742 5742 5743 5743 5744 5745 5745 5746 5747 5748 5749 5750 5752 5752 5753 5753 5754 5755
5767 5765 5763 5762 5760 5758 5756 5754 5752 5750 5749 5747 5745 5744 5742 5742 5741 5740 5740 5739 5738 5737 5737 5736 5736 5736 5736 5736 5737 5738 5739 5740 5740 5742 5742 5743 5744 5745 5746 5746 5747 5748 5748
5761 5759 5757 5755 5753 5751 5749 5747 5745 5743 5742 5740 5739 5737 5736 5735 5734 5733 5733 5732 5731 5731 5730 5729 5729 5729 5730 5730 5731 5732 5733 5733 5734 5735 5736 5737 5738 5739 5739 5740 5740 5741 5742
5753 5752 5750 5748 5746 5744 5742 5740 5738 5736 5735 5733 5732 5731 5730 5729 5727 5726 5726 5725 5725 5724 5723 5723 5723 5723 5723 5723 5724 5725 5726 5727 5727 5728 5729 5731 5731 5732 5733 5733 5734 5734 5735
5746 5744 5743 5741 5739 5737 5735 5734 5732 5730 5728 5726 5725 5724 5723 5721 5720 5719 5718 5718 5717 5717 5716 5715 5715 5715 5715 5716 5717 5718 5719 5720 5721 5721 5722 5723 5724 5725 5726 5726 5727 5727 5727
5739 5737 5735 5734 5732 5730 5728 5727 5725 5723 5722 5720 5719 5717 5716 5714 5713 5711 5711 5710 5710 5709 5708 5707 5707 5707 5707 5708 5709 5710 5711 5712 5713 5714 5715 5716 5716 5717 5719 5719 5719 5719 5720